AC2JK-WX Weather Reports


Display with metric or nautical units.
time (UTC)temp
F
wind
direction
speed
MPH
gust
MPH
rain 1hr
in
rain 24hr
in
rain mn
in
humidity
%
barometer
mb
20260906212209 78 206 0.0 2.0 0.00 0.00 0.00 51 1020.0
20260906211710 78 108 1.0 2.0 0.00 0.00 0.00 54 1020.0
20260906211211 79 224 0.0 5.0 0.00 0.00 0.00 50 1020.0
20260906210709 79 199 1.0 4.0 0.00 0.00 0.00 49 1020.0
20260906210210 78 89 1.0 2.0 0.00 0.00 0.00 52 1020.0
20260906205709 78 306 1.0 4.0 0.00 0.00 0.00 49 1020.0
20260906205210 78 254 3.0 3.0 0.00 0.00 0.00 52 1020.0
20260906204709 78 97 0.0 0.0 0.00 0.00 0.00 53 1020.0
20260906204209 78 62 0.0 2.0 0.00 0.00 0.00 55 1020.0
20260906203709 77 320 1.0 1.0 0.00 0.00 0.00 56 1020.0
20260906203210 77 236 1.0 1.0 0.00 0.00 0.00 57 1020.0
20260906202709 76 197 1.0 3.0 0.00 0.00 0.00 58 1020.0
20260906202210 75 213 0.0 2.0 0.00 0.00 0.00 61 1020.0
20260906201709 76 252 0.0 2.0 0.00 0.00 0.00 59 1020.0
20260906201211 77 36 1.0 4.0 0.00 0.00 0.00 57 1020.0
20260906200709 77 94 1.0 7.0 0.00 0.00 0.00 58 1020.0
20260906200209 77 260 2.0 4.0 0.00 0.00 0.00 58 1020.0
20260906195709 77 138 3.0 3.0 0.00 0.00 0.00 58 1020.0
20260906195209 76 358 8.0 8.0 0.00 0.00 0.00 59 1020.0
20260906194709 76 173 2.0 2.0 0.00 0.00 0.00 59 1020.0
20260906194209 78 108 0.0 2.0 0.00 0.00 0.00 56 1020.0
20260906193711 78 266 5.0 5.0 0.00 0.00 0.00 57 1020.0
20260906193209 75 87 0.0 1.0 0.00 0.00 0.00 61 1020.0
20260906192710 76 153 3.0 3.0 0.00 0.00 0.00 57 1020.0
20260906192209 78 97 2.0 4.0 0.00 0.00 0.00 57 1020.0
20260906191709 76 232 0.0 3.0 0.00 0.00 0.00 61 1020.0
20260906191209 76 119 1.0 2.0 0.00 0.00 0.00 60 1020.0
20260906190710 78 178 3.0 3.0 0.00 0.00 0.00 56 1020.0
20260906190209 77 222 1.0 3.0 0.00 0.00 0.00 58 1020.0
20260906185709 76 11 2.0 2.0 0.00 0.00 0.00 59 1020.0
20260906185209 77 205 2.0 2.0 0.00 0.00 0.00 57 1020.0
20260906184709 79 230 2.0 4.0 0.00 0.00 0.00 52 1020.0
20260906184209 79 285 1.0 5.0 0.00 0.00 0.00 55 1020.0
20260906183710 77 209 0.0 2.0 0.00 0.00 0.00 58 1020.0
20260906183209 78 173 0.0 6.0 0.00 0.00 0.00 54 1020.0
20260906182709 79 240 3.0 5.0 0.00 0.00 0.00 55 1020.0
20260906182210 77 279 0.0 3.0 0.00 0.00 0.00 59 1020.0
20260906181709 77 70 3.0 6.0 0.00 0.00 0.00 56 1020.0
20260906181209 78 296 1.0 5.0 0.00 0.00 0.00 55 1020.0
20260906180709 78 53 1.0 5.0 0.00 0.00 0.00 56 1020.0
20260906180209 75 190 0.0 0.0 0.00 0.00 0.00 61 1020.0
20260906175709 76 13 1.0 1.0 0.00 0.00 0.00 59 1020.0
20260906175209 78 74 1.0 1.0 0.00 0.00 0.00 58 1020.0
20260906174709 77 14 2.0 3.0 0.00 0.00 0.00 60 1020.0
20260906174209 76 310 0.0 6.0 0.00 0.00 0.00 61 1020.0
20260906173710 77 110 1.0 6.0 0.00 0.00 0.00 61 1020.0
20260906173209 76 307 0.0 5.0 0.00 0.00 0.00 62 1020.0
20260906172709 77 205 1.0 3.0 0.00 0.00 0.00 59 1020.0
20260906172210 77 182 0.0 4.0 0.00 0.00 0.00 61 1020.0
20260906171709 77 113 2.0 5.0 0.00 0.00 0.00 61 1020.0
20260906171210 78 27 1.0 1.0 0.00 0.00 0.00 58 1020.0
20260906170709 78 340 2.0 3.0 0.00 0.00 0.00 60 1020.0
20260906170209 78 293 1.0 3.0 0.00 0.00 0.00 57 1020.0
20260906165709 78 44 2.0 5.0 0.00 0.00 0.00 60 1020.0
20260906165209 77 191 0.0 2.0 0.00 0.00 0.00 62 1020.0
20260906164709 76 224 3.0 3.0 0.00 0.00 0.00 64 1020.0
20260906164209 76 296 0.0 2.0 0.00 0.00 0.00 63 1020.0
20260906163709 76 230 2.0 4.0 0.00 0.00 0.00 60 1020.0
20260906163210 76 292 3.0 3.0 0.00 0.00 0.00 62 1020.0
20260906162709 74 238 2.0 3.0 0.00 0.00 0.00 65 1020.0
20260906162209 73 41 1.0 4.0 0.00 0.00 0.00 67 1020.0
20260906161709 74 28 4.0 4.0 0.00 0.00 0.00 67 1020.0
20260906161209 75 304 2.0 2.0 0.00 0.00 0.00 66 1020.0
20260906160709 74 242 3.0 3.0 0.00 0.00 0.00 64 1020.0
20260906160209 74 328 2.0 2.0 0.00 0.00 0.00 66 1020.0
20260906155709 75 67 2.0 5.0 0.00 0.00 0.00 64 1020.0
20260906155209 76 240 1.0 3.0 0.00 0.00 0.00 63 1020.0
20260906154709 76 238 2.0 3.0 0.00 0.00 0.00 63 1020.0
20260906154210 76 169 0.0 3.0 0.00 0.00 0.00 63 1020.0
20260906153709 76 4 3.0 6.0 0.00 0.00 0.00 65 1020.0
20260906153212 75 235 0.0 6.0 0.00 0.00 0.00 67 1020.0
20260906152709 75 328 3.0 3.0 0.00 0.00 0.00 69 1020.0
20260906152209 73 327 3.0 4.0 0.00 0.00 0.00 69 1020.0
20260906151709 72 67 1.0 3.0 0.00 0.00 0.00 70 1020.0
20260906151209 71 80 0.0 0.0 0.00 0.00 0.00 73 1020.0
20260906150709 70 204 1.0 2.0 0.00 0.00 0.00 76 1020.0
20260906150210 70 86 2.0 2.0 0.00 0.00 0.00 75 1020.0
20260906145709 70 162 0.0 2.0 0.00 0.00 0.00 76 1020.0
20260906145212 70 264 1.0 2.0 0.00 0.00 0.00 75 1020.0
20260906144710 69 240 0.0 2.0 0.00 0.00 0.00 75 1020.0
20260906144210 69 97 0.0 1.0 0.00 0.00 0.00 78 1020.0
20260906143709 69 189 2.0 2.0 0.00 0.00 0.00 78 1020.0
20260906143209 69 207 0.0 2.0 0.00 0.00 0.00 78 1020.0
20260906142709 69 304 0.0 2.0 0.00 0.00 0.00 78 1020.0
20260906142209 69 145 0.0 2.0 0.00 0.00 0.00 79 1020.0
20260906141709 68 21 0.0 0.0 0.00 0.00 0.00 82 1020.0
20260906141210 68 357 0.0 0.0 0.00 0.00 0.00 80 1020.0
20260906140709 69 26 1.0 1.0 0.00 0.00 0.00 81 1020.0
20260906140209 69 174 0.0 4.0 0.00 0.00 0.00 80 1020.0
20260906135709 69 144 0.0 2.0 0.00 0.00 0.00 79 1020.0
20260906135209 70 167 0.0 2.0 0.00 0.00 0.00 79 1020.0
20260906134709 70 43 0.0 2.0 0.00 0.00 0.00 80 1020.0
20260906134209 69 165 0.0 3.0 0.00 0.00 0.00 82 1020.0
20260906133709 69 136 1.0 5.0 0.00 0.00 0.00 81 1020.0
20260906133210 69 31 0.0 2.0 0.00 0.00 0.00 83 1020.0
20260906132709 68 221 0.0 2.0 0.00 0.00 0.00 86 1020.0
20260906132209 68 16 0.0 0.0 0.00 0.00 0.00 87 1020.0
20260906131710 67 49 0.0 0.0 0.00 0.00 0.00 87 1020.0
20260906131209 67 108 0.0 0.0 0.00 0.00 0.00 88 1020.0
20260906130709 66 170 0.0 0.0 0.00 0.00 0.00 88 1020.0
20260906130209 66 7 0.0 1.0 0.00 0.00 0.00 89 1020.0
20260906125711 66 344 3.0 3.0 0.00 0.00 0.00 91 1020.0
20260906125209 65 273 0.0 0.0 0.00 0.00 0.00 92 1019.0
20260906124709 64 176 0.0 0.0 0.00 0.00 0.00 93 1020.0
20260906124210 64 243 0.0 1.0 0.00 0.00 0.00 95 1019.0
20260906123709 63 177 0.0 0.0 0.00 0.00 0.00 95 1019.0
20260906123210 63 9 0.0 0.0 0.00 0.00 0.00 95 1019.0
20260906122709 62 358 0.0 0.0 0.00 0.00 0.00 96 1019.0
20260906122209 62 138 0.0 0.0 0.00 0.00 0.00 96 1019.0
20260906121709 62 56 0.0 0.0 0.00 0.00 0.00 96 1019.0
20260906121210 61 139 0.0 0.0 0.00 0.00 0.00 96 1019.0
20260906120709 61 104 0.0 0.0 0.00 0.00 0.00 96 1019.0
20260906120210 61 119 0.0 0.0 0.00 0.00 0.00 95 1019.0
20260906115710 61 166 0.0 0.0 0.00 0.00 0.00 96 1019.0
20260906115209 61 153 0.0 0.0 0.00 0.00 0.00 96 1019.0
20260906114709 61 156 0.0 0.0 0.00 0.00 0.00 96 1019.0
20260906114210 61 148 0.0 0.0 0.00 0.00 0.00 95 1019.0
20260906113710 61 152 0.0 0.0 0.00 0.00 0.00 96 1019.0
20260906113210 61 141 0.0 0.0 0.00 0.00 0.00 95 1019.0
20260906112710 60 142 0.0 0.0 0.00 0.00 0.00 95 1019.0
20260906112209 61 170 0.0 0.0 0.00 0.00 0.00 96 1019.0
20260906111710 60 110 0.0 0.0 0.00 0.00 0.00 95 1019.0
20260906111209 60 136 0.0 0.0 0.00 0.00 0.00 95 1019.0
20260906110709 60 145 0.0 0.0 0.00 0.00 0.00 95 1019.0
20260906110209 61 139 0.0 0.0 0.00 0.00 0.00 95 1019.0
20260906105709 61 161 0.0 0.0 0.00 0.00 0.00 95 1018.0
20260906105209 61 149 0.0 0.0 0.00 0.00 0.00 95 1018.0
20260906104709 61 157 0.0 0.0 0.00 0.00 0.00 95 1018.0
20260906104210 61 143 0.0 0.0 0.00 0.00 0.00 95 1018.0
20260906103709 60 149 0.0 0.0 0.00 0.00 0.00 95 1018.0
20260906103209 61 154 0.0 0.0 0.00 0.00 0.00 95 1018.0
20260906102709 61 201 0.0 0.0 0.00 0.00 0.00 95 1018.0
20260906102209 60 151 0.0 0.0 0.00 0.00 0.00 94 1018.0
20260906101710 61 184 0.0 0.0 0.00 0.00 0.00 95 1018.0
20260906101209 61 167 0.0 0.0 0.00 0.00 0.00 94 1018.0
20260906100709 61 145 0.0 0.0 0.00 0.00 0.00 95 1018.0
20260906100210 61 143 0.0 0.0 0.00 0.00 0.00 95 1018.0
20260906095709 61 142 0.0 0.0 0.00 0.00 0.00 94 1018.0
20260906095210 61 159 0.0 0.0 0.00 0.00 0.00 94 1018.0
20260906094709 61 147 0.0 0.0 0.00 0.00 0.00 94 1018.0
20260906094209 61 144 0.0 0.0 0.00 0.00 0.00 94 1018.0
20260906093709 61 144 0.0 0.0 0.00 0.00 0.00 94 1018.0
20260906093209 61 143 0.0 0.0 0.00 0.00 0.00 94 1018.0
20260906092709 62 131 0.0 0.0 0.00 0.00 0.00 93 1018.0
20260906092210 62 137 0.0 0.0 0.00 0.00 0.00 94 1018.0
20260906091709 62 115 0.0 0.0 0.00 0.00 0.00 93 1018.0
20260906091209 62 127 0.0 0.0 0.00 0.00 0.00 93 1017.0
20260906090709 62 142 0.0 0.0 0.00 0.00 0.00 94 1017.0
20260906090209 62 143 0.0 0.0 0.00 0.00 0.00 93 1017.0
20260906085709 62 150 0.0 0.0 0.00 0.00 0.00 93 1017.0
20260906085209 62 141 0.0 0.0 0.00 0.00 0.00 93 1017.0
20260906084709 62 113 0.0 0.0 0.00 0.00 0.00 93 1017.0
20260906084210 62 130 0.0 0.0 0.00 0.00 0.00 92 1017.0
20260906083709 62 139 0.0 0.0 0.00 0.00 0.00 92 1017.0
20260906083209 63 150 0.0 0.0 0.00 0.00 0.00 92 1017.0
20260906082709 63 143 0.0 0.0 0.00 0.00 0.00 92 1017.0
20260906082209 63 144 0.0 0.0 0.00 0.00 0.00 92 1017.0
20260906081709 63 150 0.0 0.0 0.00 0.00 0.00 92 1017.0
20260906081210 63 148 0.0 0.0 0.00 0.00 0.00 91 1017.0
20260906080710 64 147 0.0 0.0 0.00 0.00 0.00 91 1017.0
20260906080210 64 141 0.0 0.0 0.00 0.00 0.00 91 1017.0
20260906075709 64 147 0.0 0.0 0.00 0.00 0.00 91 1017.0
20260906075210 64 143 0.0 0.0 0.00 0.00 0.00 90 1017.0
20260906074709 64 145 0.0 0.0 0.00 0.00 0.00 90 1017.0
20260906074209 65 149 0.0 0.0 0.00 0.00 0.00 89 1017.0
20260906073709 65 145 0.0 0.0 0.00 0.00 0.00 89 1017.0
20260906073209 65 145 0.0 0.0 0.00 0.00 0.00 87 1017.0
20260906072709 65 154 0.0 0.0 0.00 0.00 0.00 87 1017.0
20260906072212 66 144 0.0 0.0 0.00 0.00 0.00 87 1017.0
20260906071709 66 134 0.0 0.0 0.00 0.00 0.00 87 1017.0
20260906071209 66 112 0.0 0.0 0.00 0.00 0.00 87 1017.0
20260906070710 66 145 0.0 0.0 0.00 0.00 0.00 87 1017.0
20260906070209 66 144 0.0 0.0 0.00 0.00 0.00 87 1017.0
20260906065709 66 162 0.0 0.0 0.00 0.00 0.00 86 1017.0
20260906065213 66 150 0.0 0.0 0.00 0.00 0.00 87 1017.0
20260906064709 66 145 0.0 0.0 0.00 0.00 0.00 86 1017.0
20260906064209 66 157 0.0 0.0 0.00 0.00 0.00 85 1017.0
20260906063709 66 144 0.0 0.0 0.00 0.00 0.00 86 1017.0
20260906063210 66 151 0.0 0.0 0.00 0.00 0.00 86 1017.0
20260906062709 66 143 0.0 0.0 0.00 0.00 0.00 86 1017.0
20260906062209 67 160 0.0 0.0 0.00 0.00 0.00 86 1017.0
20260906061709 66 141 0.0 0.0 0.00 0.00 0.00 85 1017.0
20260906061209 66 142 0.0 0.0 0.00 0.00 0.00 85 1017.0
20260906060709 66 141 0.0 0.0 0.00 0.00 0.00 85 1017.0
20260906060209 66 124 0.0 0.0 0.00 0.00 0.00 84 1017.0
20260906055710 66 146 0.0 0.0 0.00 0.00 0.00 84 1017.0
20260906055209 66 142 0.0 0.0 0.00 0.00 0.00 84 1017.0
20260906054710 66 124 0.0 0.0 0.00 0.00 0.00 83 1017.0
20260906054209 66 94 0.0 0.0 0.00 0.00 0.00 84 1017.0
20260906053710 66 154 0.0 0.0 0.00 0.00 0.00 85 1017.0
20260906053209 66 138 0.0 0.0 0.00 0.00 0.00 83 1017.0
20260906052709 66 131 0.0 0.0 0.00 0.00 0.00 83 1017.0
20260906052209 66 140 0.0 0.0 0.00 0.00 0.00 83 1017.0
20260906051709 66 127 0.0 0.0 0.00 0.00 0.00 82 1017.0
20260906051209 66 133 0.0 0.0 0.00 0.00 0.00 83 1017.0
20260906050709 66 155 0.0 0.0 0.00 0.00 0.00 83 1017.0
20260906050209 66 150 0.0 0.0 0.00 0.00 0.00 83 1017.0
20260906045709 66 151 0.0 0.0 0.00 0.00 0.00 83 1017.0
20260906045209 66 69 0.0 0.0 0.00 0.00 0.00 83 1017.0
20260906044709 66 63 0.0 0.0 0.00 0.00 0.00 83 1017.0
20260906044209 66 136 0.0 0.0 0.00 0.00 0.00 83 1017.0
20260906043709 66 146 0.0 0.0 0.00 0.00 0.00 83 1017.0
20260906043209 66 142 0.0 0.0 0.00 0.00 0.00 83 1017.0
20260906042709 66 147 0.0 0.0 0.00 0.00 0.00 83 1017.0
20260906042209 66 136 0.0 0.0 0.00 0.00 0.00 82 1017.0
20260906041709 67 140 0.0 0.0 0.00 0.00 0.00 82 1017.0
20260906041209 66 140 0.0 0.0 0.00 0.00 0.00 83 1017.0
20260906040711 66 138 0.0 0.0 0.00 0.00 0.00 82 1017.0
20260906040209 66 93 0.0 0.0 0.00 0.00 0.00 83 1017.0
20260906035709 66 135 0.0 0.0 0.00 0.00 0.00 83 1017.0
20260906035209 66 122 0.0 0.0 0.00 0.00 0.00 83 1017.0
20260906034709 66 139 0.0 0.0 0.00 0.00 0.00 84 1017.0
20260906034210 66 147 0.0 0.0 0.00 0.00 0.00 85 1017.0
20260906033710 66 144 0.0 0.0 0.00 0.00 0.00 85 1017.0
20260906033210 66 137 0.0 0.0 0.00 0.00 0.00 85 1017.0
20260906032709 65 151 0.0 0.0 0.00 0.00 0.00 84 1017.0
20260906032210 65 142 0.0 0.0 0.00 0.00 0.00 84 1017.0
20260906031710 65 152 0.0 0.0 0.00 0.00 0.00 84 1016.0
20260906031210 65 157 0.0 0.0 0.00 0.00 0.00 84 1017.0
20260906030709 65 139 0.0 0.0 0.00 0.00 0.00 84 1016.0
20260906030209 65 140 0.0 0.0 0.00 0.00 0.00 84 1016.0
20260906025709 66 135 0.0 0.0 0.00 0.00 0.00 84 1016.0
20260906025209 66 154 0.0 0.0 0.00 0.00 0.00 84 1016.0
20260906024709 66 135 0.0 0.0 0.00 0.00 0.00 83 1016.0
20260906024209 66 140 0.0 0.0 0.00 0.00 0.00 83 1017.0
20260906023709 66 144 0.0 0.0 0.00 0.00 0.00 82 1017.0
20260906023209 66 145 0.0 0.0 0.00 0.00 0.00 81 1017.0
20260906022709 66 141 0.0 0.0 0.00 0.00 0.00 80 1016.0
20260906022209 67 147 0.0 0.0 0.00 0.00 0.00 80 1016.0
20260906021709 67 139 0.0 0.0 0.00 0.00 0.00 79 1016.0
20260906021210 67 143 0.0 0.0 0.00 0.00 0.00 80 1016.0
20260906020710 67 136 0.0 0.0 0.00 0.00 0.00 79 1016.0
20260906020209 67 146 0.0 0.0 0.00 0.00 0.00 80 1016.0
20260906015709 68 143 0.0 0.0 0.00 0.00 0.00 80 1016.0
20260906015209 68 146 0.0 0.0 0.00 0.00 0.00 77 1016.0
20260906014709 68 143 0.0 0.0 0.00 0.00 0.00 75 1016.0
20260906014209 68 147 0.0 0.0 0.00 0.00 0.00 77 1016.0
20260906013709 68 144 0.0 0.0 0.00 0.00 0.00 74 1016.0
20260906013209 68 146 0.0 0.0 0.00 0.00 0.00 75 1016.0
20260906012709 68 144 0.0 0.0 0.00 0.00 0.00 74 1016.0
20260906012210 69 141 0.0 0.0 0.00 0.00 0.00 74 1016.0
20260906011709 69 144 0.0 0.0 0.00 0.00 0.00 74 1016.0
20260906011210 69 168 0.0 0.0 0.00 0.00 0.00 72 1016.0
20260906010709 69 155 0.0 0.0 0.00 0.00 0.00 73 1016.0
20260906010209 69 145 0.0 0.0 0.00 0.00 0.00 73 1016.0
20260906005709 69 143 0.0 0.0 0.00 0.00 0.00 72 1016.0
20260906005210 69 149 0.0 0.0 0.00 0.00 0.00 72 1016.0
20260906004710 69 144 0.0 0.0 0.00 0.00 0.00 71 1016.0
20260906004210 69 154 0.0 0.0 0.00 0.00 0.00 71 1016.0
20260906003710 69 153 0.0 0.0 0.00 0.00 0.00 71 1015.0
20260906003209 69 139 0.0 0.0 0.00 0.00 0.00 71 1016.0
20260906002709 69 134 0.0 0.0 0.00 0.00 0.00 70 1016.0
20260906002209 69 142 0.0 0.0 0.00 0.00 0.00 69 1016.0
20260906001709 70 149 0.0 0.0 0.00 0.00 0.00 67 1016.0
20260906001209 70 141 0.0 0.0 0.00 0.00 0.00 67 1015.0
20260906000710 71 140 0.0 0.0 0.00 0.00 0.00 66 1015.0
20260906000212 71 145 0.0 0.0 0.00 0.00 0.00 64 1015.0
20260905235709 71 148 0.0 0.0 0.00 0.00 0.00 63 1015.0
20260905235210 72 130 0.0 0.0 0.00 0.00 0.00 63 1015.0
20260905234709 72 163 0.0 0.0 0.00 0.00 0.00 63 1015.0
20260905234211 72 267 0.0 0.0 0.00 0.00 0.00 64 1015.0
20260905233712 73 180 0.0 0.0 0.00 0.00 0.00 62 1015.0
20260905233209 73 43 0.0 1.0 0.00 0.00 0.00 60 1015.0
20260905232709 73 323 0.0 1.0 0.00 0.00 0.00 63 1016.0
20260905232209 74 250 0.0 2.0 0.00 0.00 0.00 59 1016.0
20260905231709 74 188 0.0 3.0 0.00 0.00 0.00 60 1015.0
20260905231209 75 339 0.0 0.0 0.00 0.00 0.00 60 1015.0
20260905230709 75 16 1.0 1.0 0.00 0.00 0.00 56 1015.0
20260905230210 75 216 1.0 1.0 0.00 0.00 0.00 56 1015.0
20260905225710 75 5 1.0 1.0 0.00 0.00 0.00 53 1016.0
20260905225210 76 233 0.0 2.0 0.00 0.00 0.00 54 1015.0
20260905224709 77 98 1.0 2.0 0.00 0.00 0.00 52 1015.0
20260905224209 77 305 1.0 3.0 0.00 0.00 0.00 52 1015.0
20260905223709 78 192 0.0 1.0 0.00 0.00 0.00 53 1015.0
20260905223209 78 187 0.0 2.0 0.00 0.00 0.00 51 1015.0
20260905222710 78 287 0.0 1.0 0.00 0.00 0.00 50 1015.0
20260905222209 78 135 0.0 3.0 0.00 0.00 0.00 48 1016.0
20260905221709 78 212 1.0 1.0 0.00 0.00 0.00 51 1016.0
20260905221209 79 267 0.0 0.0 0.00 0.00 0.00 49 1016.0
20260905220709 78 313 1.0 2.0 0.00 0.00 0.00 53 1015.0
20260905220209 78 128 0.0 0.0 0.00 0.00 0.00 51 1015.0
20260905215709 79 183 0.0 4.0 0.00 0.00 0.00 54 1015.0
20260905215209 80 8 0.0 2.0 0.00 0.00 0.00 53 1015.0
20260905214709 80 194 0.0 2.0 0.00 0.00 0.00 50 1015.0
20260905214210 80 115 0.0 4.0 0.00 0.00 0.00 50 1015.0
20260905213710 80 333 1.0 2.0 0.00 0.00 0.00 49 1015.0
20260905213210 81 298 1.0 4.0 0.00 0.00 0.00 50 1015.0
20260905212709 80 302 0.0 4.0 0.00 0.00 0.00 50 1015.0